Location: Poinsettia Observatory
(32.9673°N, 117.0346°W)
Time: 00:00:05
(UTC-07:00)

Daily predictions for brighter satellites

Satellite Brightness Start Highest point End
(mag) Time Altitude Azimuth Time Altitude Azimuth Time Altitude Azimuth
SL-16 R/B 4.4 03:21:27 10° N 03:25:41 21° ENE 03:29:53 10° ESE
Cosmos 2297 Rocket 4.2 03:43:09 20° NNE 03:43:09 20° NNE 03:44:49 10° NNE
ADEOS II 4.2 04:07:20 10° NE 04:11:28 23° E 04:15:35 10° SSE
USA 215 3.2 04:26:25 10° SE 04:32:59 86° NE 04:36:10 34° NW
ADEOS Rocket 3.4 04:26:23 10° NNE 04:33:08 64° E 04:38:26 14° S
Cosmos 967 Rocket 4.4 04:33:27 69° SW 04:34:18 86° WNW 04:40:45 10° NNE
Cosmos 2173 Rocket 4.0 04:29:49 10° N 04:35:56 77° E 04:42:06 10° S
PAYLOAD B 4.1 04:31:12 10° NNE 04:36:44 86° WNW 04:37:08 77° SSW
ATLAS 5 CENTAUR R/B 4.0 04:41:00 20° S 04:41:00 20° S 04:43:05 10° S
Cosmos 1459 Rocket 4.0 04:32:55 10° N 04:39:18 84° E 04:45:33 10° S
Okean-O 3.9 04:38:02 10° NNE 04:42:11 38° E 04:46:18 10° SSE
CENTAUR R/B 3.6 04:34:48 10° NNW 04:42:39 59° ENE 04:50:52 10° SE
Cosmos 1626 Rocket 4.3 04:42:12 24° SSE 04:44:36 50° E 04:48:49 10° NNE
Cosmos 2123 Rocket 4.5 04:41:11 10° S 04:47:13 58° E 04:53:15 10° NNE
Cosmos 1898 Rocket 4.4 04:50:19 35° NNW 04:50:19 35° NNW 04:53:56 10° N
CZ-4B R/B 3.1 04:43:56 10° N 04:49:21 70° WNW 04:50:21 57° SW
NOSS 2-2 (D) 4.0 04:52:02 46° N 04:52:02 46° N 04:55:31 10° NNE
Meteor 1-15 Rocket 4.0 04:47:22 10° N 04:52:58 78° W 04:58:37 10° S
Cosmos 2227 4.1 04:52:27 45° SSW 04:54:19 80° WNW 05:00:06 10° NNE
Meteor 2-15 Rocket 4.4 04:49:14 10° S 04:55:17 81° E 05:01:22 10° N
Cosmos 1937 Rocket 3.7 04:56:35 50° WNW 04:56:35 50° WNW 05:01:28 10° N
Delta 2 Rocket 3.5 04:57:50 57° SSE 04:57:50 57° SSE 05:01:01 10° ESE
OE (NEXTSAT) 4.5 05:03:23 71° SE 05:03:23 71° SE 05:06:40 10° SE
NOSS 2-2 (C) 4.2 05:07:01 37° NW 05:07:01 37° NW 05:10:49 10° NNE
Cosmos 724 4.5 05:03:05 20° NW 05:07:21 53° WSW 05:13:19 10° S
NOSS 2-2 (E) 4.4 05:07:52 33° NW 05:07:52 33° NW 05:11:37 10° NNE
Okean O Rocket 3.4 05:03:46 10° NNW 05:05:16 18° NNW 05:05:16 18° NNW
Cosmos 2098 Rocket 3.4 05:03:34 10° N 05:08:08 88° W 05:13:59 10° S
Cosmos 1602 Rocket 3.4 05:06:46 22° SSW 05:09:35 78° W 05:14:00 10° N
SL-16 R/B 2.4 05:06:08 18° NW 05:09:59 45° WSW 05:15:20 10° S
DELTA 2 R/B (1) 4.4 05:07:47 28° NW 05:10:04 42° N 05:15:20 10° ENE
Cosmos 972 Rocket 4.1 05:06:17 18° SSW 05:10:29 78° WNW 05:16:38 10° NNE
PSLV R/B 3.5 05:12:26 10° N 05:16:40 59° WNW 05:18:43 28° SW
Feng Yun 1-1 Rocket 4.3 05:11:27 10° NNE 05:17:12 88° ESE 05:23:04 10° SSW
CZ-4B R/B 4.1 05:13:52 10° NNW 05:17:04 29° NW 05:17:04 29° NW
Cosmos 2228 3.2 05:15:39 10° NNW 05:19:51 47° W 05:24:00 10° SSW
Cosmos 192 4.2 05:22:40 10° NNW 05:27:35 68° WSW 05:32:26 10° S
MOS 1 Rocket 3.5 05:23:20 10° NNE 05:28:21 86° ESE 05:33:38 10° S
Cosmos 2233 Rocket 4.3 05:30:48 10° N 05:37:02 69° E 05:43:11 10° SSE
Cosmos 1812 Rocket 3.5 05:35:04 10° N 05:39:32 75° W 05:43:59 10° S
COBE Rocket 3.7 05:38:07 10° N 05:42:47 66° WNW 05:47:22 10° SSW
OAO 2 Rocket 3.6 05:44:12 18° W 05:48:06 70° N 05:53:26 10° E
Cosmos 1943 4.0 05:44:26 10° N 05:49:57 55° ENE 05:55:27 10° SE
ADEOS II 2.7 05:46:28 10° N 05:51:11 34° WNW 05:55:53 10° SW
Cosmos 2263 Rocket 2.2 05:48:41 10° SSW 05:54:15 89° ESE 05:59:51 10° NNE
Cosmos 1725 Rocket 4.2 05:50:33 10° NNW 05:56:29 47° W 06:02:23 10° SSW
Cosmos 1603 3.9 05:52:27 10° NNW 05:57:56 50° WSW 06:03:21 10° S
Tiangong 1 2.8 05:57:01 10° NW 05:59:38 26° NNE 06:02:16 10° E
Meteor 1-22 Rocket 4.3 05:56:53 10° N 06:02:31 88° W 06:08:21 10° S
Cosmos 1766 3.5 06:03:47 10° N 06:07:47 78° E 06:11:45 10° S
Centaur D-1A AC-35 3.2 06:04:48 10° WSW 06:08:09 33° S 06:12:03 10° ESE
Cosmos 1048 Rocket 4.0 06:03:10 10° NNW 06:08:19 84° ENE 06:13:26 10° SSE
Ariane Rocket 3.0 06:03:16 10° NNE 06:08:24 89° WNW 06:13:30 10° SSW
COSMO-SKYMED 1 2.8 06:04:20 10° SSE 06:08:39 78° ENE 06:13:00 10° N
Cosmos 1825 Rocket 3.7 06:04:45 10° SSW 06:09:01 50° W 06:13:16 10° N
Cosmos 1340 3.7 06:06:09 10° SW 06:09:21 26° WNW 06:12:34 10° NNW
Meteor 1-31 Rocket 3.8 06:08:31 10° NNW 06:11:52 27° WNW 06:15:13 10° SW
Intercosmos 25 Rocket 4.3 06:08:59 10° NNW 06:13:09 53° W 06:19:47 10° S
Cosmos 1269 Rocket 4.0 06:09:58 10° NNW 06:15:14 70° WSW 06:20:27 10° S
Meteor 1-21 4.3 06:10:26 10° SSW 06:16:08 67° W 06:21:56 10° N
Cosmos 405 Rocket 3.5 06:14:09 10° S 06:17:47 55° E 06:21:25 10° NNE
ADEOS Rocket 4.5 06:13:26 10° NNW 06:17:48 18° WNW 06:21:54 10° WSW
Okean-O 4.3 06:15:43 10° NNW 06:18:18 15° WNW 06:20:53 10° WSW
Cosmos 372 Rocket 4.2 06:15:17 10° SW 06:20:10 47° WNW 06:25:07 10° N
